This is the latest recevied weather packets stored in our database for station/object OE3PDB-3. If no packets are shown the sender has not sent any weather packets the latest 10 day(s).
| Time | Temp. | Humidity | Pressure | Rain* | Wind** | Luminosity | Snow |
|---|---|---|---|---|---|---|---|
| 1778016043 | 16.11° C | 59% | 1005.4 hPa | 0 mm | - | - | - |
| 1778015443 | 15.56° C | 58% | 1005.2 hPa | 0 mm | - | - | - |
| 1778014843 | 15° C | 59% | 1005.2 hPa | 0 mm | - | - | - |
| 1778014243 | 15° C | 60% | 1005.2 hPa | 0 mm | - | - | - |
| 1778013643 | 15° C | 60% | 1005 hPa | 0 mm | - | - | - |
| 1778013043 | 15° C | 60% | 1004.9 hPa | 0 mm | - | - | - |
| 1778012444 | 15° C | 59% | 1004.8 hPa | 0 mm | - | - | - |
| 1778011844 | 15.56° C | 59% | 1004.6 hPa | 0 mm | - | - | - |
| 1778011243 | 15.56° C | 58% | 1004.4 hPa | 0 mm | - | - | - |
| 1778010644 | 16.11° C | 57% | 1004.4 hPa | 0 mm | - | - | - |
| 1778010044 | 16.11° C | 55% | 1004.2 hPa | 0 mm | - | - | - |
| 1778009444 | 16.67° C | 55% | 1004.2 hPa | 0 mm | - | - | - |
| 1778008844 | 16.67° C | 54% | 1004.1 hPa | 0 mm | - | - | - |
| 1778008244 | 17.22° C | 53% | 1004.2 hPa | 0 mm | - | - | - |
| 1778007644 | 17.78° C | 52% | 1004.1 hPa | 0 mm | - | - | - |
| 1778007044 | 17.78° C | 51% | 1004 hPa | 0 mm | - | - | - |
| 1778006444 | 17.78° C | 50% | 1004 hPa | 0 mm | - | - | - |
| 1778005844 | 18.33° C | 49% | 1003.9 hPa | 0 mm | - | - | - |
| 1778005244 | 18.89° C | 48% | 1003.9 hPa | 0 mm | - | - | - |
| 1778004644 | 18.89° C | 48% | 1004 hPa | 0 mm | - | - | - |
| 1778004044 | 19.44° C | 46% | 1003.9 hPa | 0 mm | - | - | - |
| 1778003444 | 20° C | 46% | 1003.8 hPa | 0 mm | - | - | - |
| 1778002844 | 20° C | 45% | 1003.8 hPa | 0 mm | - | - | - |
| 1778002244 | 20.56° C | 44% | 1003.8 hPa | 0 mm | - | - | - |
| 1778001644 | 21.11° C | 44% | 1003.7 hPa | 0 mm | - | - | - |
* Rain latest hour (hover to see other rain measurements)
** Current wind speed in m/s (hover to see current wind gust speed)